Showing default

RTU MIREA 1, 61785

Orbit data source: Space-Track

RTU MIREA 1, 61785 is a Commonwealth of Independent States-origin payload satellite in SSO that was launched on Mon, 04 Nov 2024 UTC via a SOYUZ-2-1B launch vehicle from the Vostochny Cosmodrome (VOSTO). Payload-class satellites include a variety of spacecraft equipped with specific instruments for various scientific and technological missions. These include communications satellites like Starlink; space stations such as the ISS; scientific satellites like the Hubble; Earth observation satellites from companies like Planet Labs, Umbra, and HawkEye 360; GPS; miniature CubeSats for education and research; and military/defense satellites.

Not visible in the next 10 days
Identifier
61785, 2024-199BC
Orbit
SSO
Country
Flag of CISCIS
Related business
Manufacturer
MIREA
Mission
Operational Amateur Technology
Bus & Motor
CUBESAT 3U, Unknown motor
Mass
4 kg wet, 4 kg dry
Launch date (UTC)
2024-11-04 (1 year ago)
Launch vehicle
SOYUZ-2-1B
Launch site
Vostochny Cosmodrome (VOSTO)
Object type
Payload
Rocket body
Debris
Shape & HBR
Box, 0.1 m
Radar Cross Section
0.035 m², Small (<0.1 m²)

Expand to show TLE details & history
Last TLE update: 8 hours ago

TLE from 8 hours ago
0 RTU MIREA 1
1 61785U 24199BC  26061.95928167  .00047780  00000-0  82728-3 0  9990
2 61785  97.3130 296.3569 0008974 318.6609  41.3963 15.50738055117951
Epoch: 2026-03-02T23:01Z
TLE epoch observation values (Epoch: 2026-03-02T23:01:21.936Z)
Latitude
-0°
Longitude
150.27029°
Altitude
413.133 km
Speed
7.666 km/s
True Right ascension
19h 45m 25s
True Declination
0° 00' 00"
Sunlit
Object was in daylight at epoch
Visualization orbit readout
Latitude
Unknown
Longitude
Unknown
Altitude
Unknown
Speed
Unknown
Apparent Right ascension
Unknown
Apparent Declination
Unknown
Sunlit
N/A
Visualization observer readout
Local Sidereal Time
10:44:14
Azimuth
Unknown
Elevation
Unknown
Doppler factor
Unknown
Orbital elements
Apogee altitude
417.584 km
Perigee altitude
405.398 km
Semi-major axis
6,789.628 km
Eccentricity
0.0009
Inclination
97.313°
RAAN
296.3569°
Arg. of periapsis
318.6609°
True anomaly
41.46436°
Mean anomaly
41.3963°
Eccentric anomaly
41.43032°
Mean motion
3.87949 °/min
Orbital period
92.8 mins
BSTAR
0.00082728
Loading maneuver chart data...
Computing Atmospheric mass density...
Loading historical data...
Loading historical data...
Loading historical data...
Loading historical data...
Loading historical data...
Loading historical data...
Loading historical data...

Documentation

Showing up to 5 results
|